www.pogodaiklimat.ru

Погода и климат >> Архив погоды >> Барбадос >> Грантли Адамс


ПОГОДА в Грантли Адамсе

  • Прогноз погоды в Грантли Адамсе
  • Монитор погоды в Грантли Адамсе

АРХИВ ПОГОДЫ в Грантли Адамсе

Время (UTC), дата Ветер
(напр.,м/с)
 
Видим.   Явления Облачность Т
(С)
Тd
(С)
f
(%)
Тe
(С)
Тes
(С)
Комфортность P
(гПа)
Po
(гПа)
Тmin
(С)
Tmax
(С)
R
(мм)
R24
(мм)
S
(см)
00 17.09 В 4 14 км осадки на расстоянии {гроза, ливн. осадки} 10/1 300 м
[Cb cap Ac As]
+26.9 +24.2 85 +37 +37 очень
душно
1012.4 1004.7 +28.7 5
03 17.09 В 5 14 км осадки на расстоянии 10/5 300 м
[Cb cap Ac As]
+27.5 +25.0 86 +39 +39 очень
душно
1012.4 1004.7
06 17.09 В 5 18 км слаб. дождь 10/5 480 м
[Cu Sc Ac As]
+26.6 +24.7 89 +38 +38 очень
душно
1010.6 1002.9 +24.9 +28.7
09 17.09 ЮВ 5 20 км осадки на расстоянии ясно +27.4 +24.5 84 +39 +39 очень
душно
1010.8 1003.1
12 17.09 В 5 14 км слаб. ливневой дождь ясно +25.7 +24.7 94 +36 +39 очень
душно
1012.4 1004.7 +25.4 +28.7 7
15 17.09 В 5 14 км пыль ясно +30.5 +24.7 71 +43 +53 опасность
перегрева
1012.8 1005.1
18 17.09 В 4 20 км {ливн. осадки} ясно +30.7 +24.2 68 +43 +53 опасность
перегрева
1011.2 1003.5 +25.4 +31.7
21 17.09 В 4 22 км ясно +29.0 +23.0 70 +39 +40 очень
душно
1011.1 1003.4
00 18.09 В 3 22 км ясно +28.0 +24.2 80 +39 +39 очень
душно
1011.9 1004.2 +31.7
03 18.09 ЮВ 3 26 км ясно +27.2 +23.6 81 +37 +37 очень
душно
1011.8 1004.1
09 18.09 В 3 26 км ясно +27.0 +23.2 80 +36 +36 очень
душно
1010.5 1002.8
15 18.09 В 3 20 км пыль ясно +31.2 +23.7 64 +42 +60 опасность
перегрева
1011.2 1003.5
18 18.09 ЮВ 3 18 км пыль ясно +31.2 +24.2 66 +43 +56 опасность
перегрева
1009.0 1001.3 +27.0 +31.5
21 18.09 В 2 24 км ясно +28.6 +23.4 73 +39 +40 очень
душно
1009.0 1001.3
00 19.09 В 1 24 км ясно +27.2 +24.2 84 +38 +38 очень
душно
1009.8 1002.1 +31.5
03 19.09 СВ 1 24 км ясно +26.2 +23.2 84 +35 +35 очень
душно
1009.9 1002.2
06 19.09 СВ 1 24 км ясно +24.7 +23.1 91 +33 +33 очень
душно
1008.7 1000.9 +27.0 +31.5
12 19.09 ЮВ 2 10 км слаб. ливневой дождь ясно +26.7 +24.6 88 +38 +43 очень
душно
1010.4 1002.7 +24.7 +31.5
15 19.09 Ю 2 24 км слаб. ливневой дождь ясно +28.1 +23.9 78 +39 +58 опасность
солнечного
удара
1010.6 1002.9
21 19.09 Ю 2 20 км осадки на расстоянии ясно +29.2 +23.4 71 +40 +41 очень
душно
1009.3 1001.6
00 20.09 ЮВ 2 24 км ясно +27.6 +23.9 80 +38 +38 очень
душно
1009.6 1001.9 +30.7
03 20.09 В 1 24 км ясно +26.1 +23.2 84 +35 +35 очень
душно
1011.2 1003.5
09 20.09 ЮВ 3 24 км ясно +26.2 +23.0 83 +35 +35 очень
душно
1011.3 1003.6
12 20.09 ЮВ 3 30 км ясно +29.2 +23.4 71 +40 +44 очень
душно
1013.4 1005.7 +25.9 +30.7
15 20.09 ЮВ 3 40 км ясно +30.7 +23.1 64 +41 +57 опасность
перегрева
1013.3 1005.6
18 20.09 ЮВ 3 40 км ясно +30.9 +25.2 72 +45 +58 опасность
перегрева
1011.7 1004.0 +25.9 +31.7
21 20.09 В 3 40 км ясно +29.2 +24.2 74 +41 +42 опасность
перегрева
1011.2 1003.5
00 21.09 ЮВ 3 24 км слаб. ливневой дождь ясно +28.6 +25.1 81 +41 +41 опасность
перегрева
1013.1 1005.4 +31.7
06 21.09 В 3 28 км осадки на расстоянии {ливн. осадки} ясно +27.2 +23.7 81 +37 +37 очень
душно
1012.5 1004.8 +25.9 +31.7
09 21.09 В 4 26 км {ливн. осадки} ясно +27.5 +23.7 80 +38 +38 очень
душно
1012.1 1004.4
12 21.09 В 4 30 км {ливн. осадки} ясно +29.2 +24.6 76 +41 +45 опасность
перегрева
1012.6 1004.9 +26.9 +31.7
15 21.09 В 7 22 км осадки на расстоянии {ливн. осадки} ясно +28.7 +24.2 77 +40 +46 очень
душно
1012.4 1004.7
18 21.09 В 5 30 км {ливн. осадки} ясно +30.5 +23.7 67 +42 +49 опасность
перегрева
1010.5 1002.8 +26.5 +31.7 2
21 21.09 В 5 16 км осадки на расстоянии ясно +28.2 +23.6 76 +38 +39 очень
душно
1009.7 1002.0
00 22.09 В 7 8000 м слаб. ливневой дождь 10/9 360 м
[Cb cap]
+26.2 +24.2 89 +36 +36 очень
душно
1011.1 1003.4 +31.7
06 22.09 ЮВ 8 14 км слаб. дождь ясно +25.9 +23.0 84 +35 +35 очень
душно
1009.8 1002.1 +24.9 +31.7
09 22.09 Ю 7 9000 м дождь 10/10 420 м
[Cu Sc]
+25.1 +22.9 88 +33 +33 очень
душно
1010.4 1002.6
12 22.09 ЮВ 7 10 км слаб. дождь ясно +25.7 +22.7 84 +34 +36 очень
душно
1013.3 1005.6 +24.2 +31.7 6
15 22.09 ЮВ 5 10 км осадки на расстоянии {ливн. осадки} ясно +26.7 +23.4 82 +36 +46 очень
душно
1013.5 1005.8
18 22.09 Ю 5 4000 м в посл. час ливневой дождь ясно +26.5 +24.1 87 +37 +45 очень
душно
1011.4 1003.7 +23.2 +30.1 6
21 22.09 Ю 5 26 км {ливн. осадки, дождь} ясно +28.1 +22.7 73 +37 +38 очень
душно
1011.4 1003.7
00 23.09 ЮВ 4 26 км {ливн. осадки, дождь} ясно +27.7 +23.7 79 +38 +38 очень
душно
1012.5 1004.8 +29.9 1
06 23.09 ЮВ 3 26 км {ливн. осадки} ясно +27.2 +24.0 83 +38 +38 очень
душно
1012.6 1004.9 +23.2 +30.1 5
09 23.09 ЮВ 4 26 км ясно +27.2 +23.7 81 +37 +37 очень
душно
1012.8 1005.1
12 23.09 ЮВ 3 26 км осадки на расстоянии {ливн. осадки} ясно +27.9 +25.1 85 +40 +45 очень
душно
1014.1 1006.4 +24.2 +29.9 4
15 23.09 ЮВ 4 14 км слаб. ливневой дождь ясно +29.6 +24.2 73 +41 +54 опасность
перегрева
1014.1 1006.4
18 23.09 Ю 4 5000 м слаб. ливневой дождь ясно +26.2 +25.4 95 +38 +49 очень
душно
1012.6 1004.9 +24.2 +30.2 5

 

Местоположение метеостанции Грантли Адамс (Барбадос): широта 13.07 долгота -59.48 высота над уровнем моря 56 м.

В архиве по умолчанию представлена погода в Грантли Адамсе за последнюю неделю. Архивные данные за месяц целиком и за предыдущие месяцы, начиная с января 2011 года, Вы можете получить, выбрав интересующий диапазон дат из раскрывающегося списка и нажав кнопку "Ввод!".


*Определитесь, кто Вы:
робот инопланетянин человек

Внимание! Время в таблицах - всемирное. Для получения местного времени необходимо прибавить поправку, которая равна -4 ч.

Смотрите также архив погоды в соседних городах и на ближайших метеорологических станциях:

Погода в Аэропорту Хеванорра (Сент-Люсия) (175 км)
Погода в Арнос Вейл (Сент-Винсент и Гренадины) (186 км)
Погода в Виги (Сент-Люсия) (195 км)
Погода в Аэропорту Мартиники (Мартиника) (236 км)
Погода на Каравелле (Мартиника) (242 км)
Погода в Краун-Пойнте (Тринидад и Тобаго) (259 км)
Погода в Аэропорту Морис Бишоп (Гренада) (277 км)
Погода в Дуглас-Шарль аэропорту (Доминика) (337 км)
Погода в Аэропорту Пиарко (Тринидад и Тобаго) (339 км)
Погода в Канфилд аэропорту (Доминика) (343 км)

Пояснения к столбцам:

Ветер - указаны скорость ветра в м/с - средняя за 10 мин, порывы в срок и между сроками (в фигурных скобках) и направление, откуда дует ветер: С - северный, СВ - северо-восточный, В - восточный, ЮВ - юго-восточный, Ю - южный, ЮЗ - юго-западный, З - западный, СЗ - северо-западный.
Видимость - горизонтальная дальность видимости в метрах или километрах. При видимости от 1 до 10 км при отсутствии осадков обычно наблюдается дымка, при ухудшении видимости до 1 км и менее - туман. В сухую погоду видимость может ухудшаться дымом, пылью или мглою.
Явления - указаны атмосферные явления, наблюдавшиеся в срок или в последний час перед сроком; фигурными скобками обозначены явления, наблюдавшиеся между сроками (за 1-3 часа до срока); квадратными скобками обозначены град или гололедные отложения с указанием их диаметра в мм.
Облачность - указаны через наклонную черту общая и нижняя облачность в баллах и высота нижней границы облаков в метрах; квадратными скобками обозначены формы облаков: Ci - перистые, Cs - перисто-слоистые, Cc - перисто-кучевые, Ac - высококучевые, As - высокослоистые, Sc - слоисто-кучевые, Ns - слоисто-дождевые, Cu - кучевые, Cb - кучево-дождевые. Подробнее классификацию облаков см. в Атласе облаков (PDF).
T - Температура воздуха - температура, измеренная на высоте 2 м над землей.
Td - Температура точки росы - температура, при понижении до которой содержащийся в воздухе водяной пар достигнет насыщения.
f - Относительная влажность воздуха - влажноcть воздуха, измеренная на высоте 2 м над землей.
Te - Эффективная температура - температура, которую ощущает одетый по сезону человек в тени. Характеристика душности погоды. При расчете учитывается влияние влажности воздуха и скорости ветра на теплоощущения человека.
Tes - Эффективная температура на солнце - температура, которую ощущает человек, с поправкой на солнечный нагрев. Характеристика знойности погоды. Зависит от высоты солнца над горизонтом, облачности и скорости ветра. Ночью, в пасмурную погоду, а также при ветре 12 м/с и более поправка равна нулю.
P - Атмосферное давление - приведенное к уровню моря атмосферное давление.
Po - Атмосферное давление - измеренное на уровне метеостанции атмосферное давление.
Tmin - Минимальная температура - минимум температуры воздуха на высоте 2 м над землей.
Tmax - Максимальная температура - максимум температуры воздуха на высоте 2 м над землей.
R - Количество осадков - Количество выпавших осадков за период времени, мм. При наведении курсора мыши на число - период времени, за который выпало указанное количество осадков.
R24 - Количество осадков - Количество выпавших осадков за 24 часа, мм.
S - Снежный покров - Высота снежного покрова, см. При наведении курсора мыши на число - состояние снежного покрова и степень покрытия местности в баллах.